Weather in Litovko

Russia / Khabarovsk Krai     49°14′25″N   135°10′15″E
temp.,
°C
wind,
m/s
gust,
m/s
humid.,
%
clouds,
%
prec.,
mm/h
press.,
hPa
HPBL,
m
29 september, wed
wed2901:00+12s22765 0.0 101124
04:00+12s128711 0.0 101017
07:00+12sse1291100 0.0 101029
10:00+18ssw367021 0.0 1009578
13:00+21ssw5859100 0.0 10071385
16:00+22sw5857100 0.1 10051627
19:00+19s4107188 0.2 1005395
22:00+15ssw3590100 1.4 1004114
30 september, thu
thu3001:00+14wsw2398100 3.6 1003108
04:00+14ssw1398100 4.6 1002180
07:00+11wsw369393 0.0 1003160
10:00+13wsw46670 0.0 1003468
13:00+16wsw79380 0.0 10041491
16:00+16wsw68415 0.0 10041920
19:00+11wsw613465 0.0 1006548
22:00+9w411520 0.0 1007348
1 october, fri
fri101:00+7wsw355915 0.0 100879
04:00+8sw3953100 0.0 1008287
07:00+6sw36605 0.0 1009110
10:00+12wsw58480 0.0 1009903
13:00+14wsw57416 0.0 10081988
16:00+14wsw673978 0.0 10082006
19:00+10wsw355967 0.0 100992
22:00+8w387615 0.2 1010183
2 october, sat
sat201:00+5w35795 0.0 101196
04:00+4w35740 0.0 101281
07:00+3w35740 0.0 101378
10:00+10w58490 0.0 1014929
13:00+12w67385 0.0 10131706
16:00+13w683613 0.0 10122225
19:00+8w49571 0.0 1014219
22:00+6w49700 0.0 1014173
3 october, sun
sun301:00+5w410710 0.0 1015196
04:00+4w49750 0.0 1015182
07:00+4w411720 0.0 1017240
10:00+9wnw68470 0.0 1017841
13:00+13w68355 0.0 10171751
16:00+13w79345 0.0 10171942
19:00+9wsw495194 0.0 1019169
22:00+7wsw356262 0.0 101975